Time,TemperatureF,DewpointF,PressureIn,WindDirection,WindDirectionDegrees,WindSpeedMPH,WindSpeedGustMPH,Humidity,HourlyPrecipIn,Conditions,Clouds,dailyrainin,SoftwareType,DateUTC
2013-01-14 00:04:00,70.0,64.0,30.11,ESE,104,3.0,-999.0,81,-99.99,,,-99.99,,2013-01-14 05:04:00,
2013-01-14 00:12:00,70.0,64.0,30.11,ESE,104,3.0,-999.0,81,-99.99,,,-99.99,,2013-01-14 05:12:00,
2013-01-14 00:22:00,70.0,64.0,30.11,ESE,103,2.0,-999.0,82,-99.99,,,-99.99,,2013-01-14 05:22:00,
2013-01-14 00:33:00,69.0,64.0,30.11,ESE,106,2.0,-999.0,83,-99.99,,,-99.99,,2013-01-14 05:33:00,
2013-01-14 00:42:00,69.0,64.0,30.11,ESE,106,2.0,-999.0,83,-99.99,,,-99.99,,2013-01-14 05:42:00,
2013-01-14 00:53:00,69.0,64.0,30.11,ESE,105,2.0,-999.0,85,-99.99,,,-99.99,,2013-01-14 05:53:00,
2013-01-14 01:03:00,69.0,65.0,30.11,ESE,115,3.0,-999.0,86,-99.99,,,-99.99,,2013-01-14 06:03:00,
2013-01-14 01:12:00,69.0,65.0,30.11,ESE,115,3.0,-999.0,86,-99.99,,,-99.99,,2013-01-14 06:12:00,
2013-01-14 01:22:00,68.0,63.0,30.11,SE,128,3.0,-999.0,85,-99.99,,,-99.99,,2013-01-14 06:22:00,
2013-01-14 01:33:00,68.0,63.0,30.11,SE,126,3.0,-999.0,85,-99.99,,,-99.99,,2013-01-14 06:33:00,
2013-01-14 01:43:00,68.0,63.0,30.11,SE,126,3.0,-999.0,85,-99.99,,,-99.99,,2013-01-14 06:43:00,
2013-01-14 01:53:00,69.0,65.0,30.11,SE,124,4.0,-999.0,86,-99.99,,,-99.99,,2013-01-14 06:53:00,
2013-01-14 02:02:00,69.0,65.0,30.11,SE,124,4.0,-999.0,86,-99.99,,,-99.99,,2013-01-14 07:02:00,
2013-01-14 02:12:00,69.0,65.0,30.11,SE,124,4.0,-999.0,86,-99.99,,,-99.99,,2013-01-14 07:12:00,
2013-01-14 02:23:00,68.0,63.0,30.11,ESE,107,3.0,-999.0,85,-99.99,,,-99.99,,2013-01-14 07:23:00,
2013-01-14 02:33:00,68.0,64.0,30.11,ESE,103,3.0,-999.0,86,-99.99,,,-99.99,,2013-01-14 07:33:00,
2013-01-14 02:43:00,68.0,64.0,30.11,ESE,103,3.0,-999.0,86,-99.99,,,-99.99,,2013-01-14 07:43:00,
2013-01-14 02:53:00,67.0,63.0,30.11,East,101,3.0,-999.0,86,-99.99,,,-99.99,,2013-01-14 07:53:00,
2013-01-14 03:02:00,68.0,64.0,30.11,ESE,105,4.0,-999.0,88,-99.99,,,-99.99,,2013-01-14 08:02:00,
2013-01-14 03:12:00,68.0,64.0,30.11,ESE,105,4.0,-999.0,88,-99.99,,,-99.99,,2013-01-14 08:12:00,
2013-01-14 03:22:00,68.0,64.0,30.11,ESE,107,3.0,-999.0,87,-99.99,,,-99.99,,2013-01-14 08:22:00,
2013-01-14 03:33:00,68.0,64.0,30.11,ESE,104,2.0,-999.0,87,-99.99,,,-99.99,,2013-01-14 08:33:00,
2013-01-14 03:42:00,68.0,64.0,30.11,ESE,104,2.0,-999.0,87,-99.99,,,-99.99,,2013-01-14 08:42:00,
2013-01-14 03:53:00,68.0,64.0,30.11,East,101,2.0,-999.0,87,-99.99,,,-99.99,,2013-01-14 08:53:00,
2013-01-14 04:03:00,68.0,64.0,30.11,ESE,103,4.0,-999.0,88,-99.99,,,-99.99,,2013-01-14 09:03:00,
2013-01-14 04:12:00,68.0,64.0,30.11,ESE,103,4.0,-999.0,88,-99.99,,,-99.99,,2013-01-14 09:12:00,
2013-01-14 04:23:00,68.0,65.0,30.10,East,94,5.0,-999.0,89,-99.99,,,-99.99,,2013-01-14 09:23:00,
2013-01-14 04:33:00,67.0,64.0,30.10,East,98,5.0,-999.0,89,-99.99,,,-99.99,,2013-01-14 09:33:00,
2013-01-14 04:43:00,67.0,64.0,30.10,East,98,5.0,-999.0,89,-99.99,,,-99.99,,2013-01-14 09:43:00,
2013-01-14 04:53:00,67.0,64.0,30.10,East,96,5.0,-999.0,89,-99.99,,,-99.99,,2013-01-14 09:53:00,
2013-01-14 05:02:00,67.0,64.0,30.10,East,96,6.0,-999.0,90,-99.99,,,-99.99,,2013-01-14 10:02:00,
2013-01-14 05:12:00,67.0,64.0,30.10,East,96,6.0,-999.0,90,-99.99,,,-99.99,,2013-01-14 10:12:00,
2013-01-14 05:23:00,67.0,64.0,30.10,East,92,5.0,-999.0,90,-99.99,,,-99.99,,2013-01-14 10:23:00,
2013-01-14 05:32:00,67.0,64.0,30.10,ESE,105,7.0,-999.0,90,-99.99,,,-99.99,,2013-01-14 10:32:00,
2013-01-14 05:42:00,67.0,64.0,30.10,ESE,105,7.0,-999.0,90,-99.99,,,-99.99,,2013-01-14 10:42:00,
2013-01-14 05:53:00,66.0,63.0,30.10,ESE,110,7.0,-999.0,90,-99.99,,,-99.99,,2013-01-14 10:53:00,
2013-01-14 06:02:00,66.0,63.0,30.10,East,90,7.0,-999.0,91,-99.99,,,-99.99,,2013-01-14 11:02:00,
2013-01-14 06:12:00,66.0,63.0,30.10,East,90,7.0,-999.0,91,-99.99,,,-99.99,,2013-01-14 11:12:00,
2013-01-14 06:22:00,66.0,64.0,30.10,East,91,7.0,-999.0,92,-99.99,,,-99.99,,2013-01-14 11:22:00,
2013-01-14 06:33:00,66.0,63.0,30.10,East,92,7.0,-999.0,91,-99.99,,,-99.99,,2013-01-14 11:33:00,
2013-01-14 06:43:00,66.0,63.0,30.10,East,92,7.0,-999.0,91,-99.99,,,-99.99,,2013-01-14 11:43:00,
2013-01-14 06:53:00,66.0,63.0,30.11,East,89,7.0,-999.0,91,-99.99,,,-99.99,,2013-01-14 11:53:00,
2013-01-14 07:03:00,66.0,63.0,30.11,ESE,102,7.0,-999.0,91,-99.99,,,-99.99,,2013-01-14 12:03:00,
2013-01-14 07:12:00,66.0,63.0,30.11,ESE,102,7.0,-999.0,91,-99.99,,,-99.99,,2013-01-14 12:12:00,
2013-01-14 07:23:00,66.0,63.0,30.11,ESE,105,7.0,-999.0,91,-99.99,,,-99.99,,2013-01-14 12:23:00,
2013-01-14 07:33:00,66.0,63.0,30.11,East,88,7.0,-999.0,90,-99.99,,,-99.99,,2013-01-14 12:33:00,
2013-01-14 07:43:00,66.0,63.0,30.11,East,88,7.0,-999.0,90,-99.99,,,-99.99,,2013-01-14 12:43:00,
2013-01-14 07:53:00,66.0,63.0,30.12,SE,125,6.0,-999.0,90,-99.99,,,-99.99,,2013-01-14 12:53:00,
2013-01-14 08:03:00,67.0,64.0,30.12,ESE,113,6.0,-999.0,89,-99.99,,,-99.99,,2013-01-14 13:03:00,
2013-01-14 08:13:00,67.0,64.0,30.12,ESE,113,6.0,-999.0,89,-99.99,,,-99.99,,2013-01-14 13:13:00,
2013-01-14 08:23:00,67.0,63.0,30.13,ESE,113,6.0,-999.0,88,-99.99,,,-99.99,,2013-01-14 13:23:00,
2013-01-14 08:33:00,68.0,64.0,30.14,ESE,107,6.0,-999.0,87,-99.99,,,-99.99,,2013-01-14 13:33:00,
2013-01-14 08:43:00,68.0,64.0,30.14,ESE,107,6.0,-999.0,87,-99.99,,,-99.99,,2013-01-14 13:43:00,
2013-01-14 08:53:00,68.0,63.0,30.14,ESE,112,4.0,-999.0,85,-99.99,,,-99.99,,2013-01-14 13:53:00,
2013-01-14 09:03:00,69.0,64.0,30.14,ESE,103,4.0,-999.0,84,-99.99,,,-99.99,,2013-01-14 14:03:00,
2013-01-14 09:13:00,69.0,64.0,30.14,ESE,103,4.0,-999.0,84,-99.99,,,-99.99,,2013-01-14 14:13:00,
2013-01-14 09:23:00,70.0,65.0,30.15,East,101,5.0,-999.0,84,-99.99,,,-99.99,,2013-01-14 14:23:00,
2013-01-14 09:33:00,70.0,64.0,30.15,ESE,107,4.0,-999.0,82,-99.99,,,-99.99,,2013-01-14 14:33:00,
2013-01-14 09:43:00,70.0,64.0,30.15,ESE,107,4.0,-999.0,82,-99.99,,,-99.99,,2013-01-14 14:43:00,
2013-01-14 09:53:00,71.0,65.0,30.16,ESE,109,4.0,-999.0,80,-99.99,,,-99.99,,2013-01-14 14:53:00,
2013-01-14 10:03:00,72.0,65.0,30.16,ESE,109,3.0,-999.0,78,-99.99,,,-99.99,,2013-01-14 15:03:00,
2013-01-14 10:12:00,72.0,65.0,30.16,ESE,109,3.0,-999.0,78,-99.99,,,-99.99,,2013-01-14 15:12:00,
2013-01-14 10:23:00,73.0,65.0,30.16,East,94,3.0,-999.0,76,-99.99,,,-99.99,,2013-01-14 15:23:00,
2013-01-14 10:33:00,74.0,66.0,30.16,ESE,107,3.0,-999.0,75,-99.99,,,-99.99,,2013-01-14 15:33:00,
2013-01-14 10:43:00,74.0,66.0,30.16,ESE,107,3.0,-999.0,75,-99.99,,,-99.99,,2013-01-14 15:43:00,
2013-01-14 10:53:00,74.0,66.0,30.15,East,96,5.0,-999.0,75,-99.99,,,-99.99,,2013-01-14 15:53:00,
2013-01-14 11:03:00,74.0,65.0,30.16,ESE,112,5.0,-999.0,73,-99.99,,,-99.99,,2013-01-14 16:03:00,
2013-01-14 11:12:00,74.0,65.0,30.16,ESE,112,5.0,-999.0,73,-99.99,,,-99.99,,2013-01-14 16:12:00,
2013-01-14 11:23:00,75.0,66.0,30.15,ESE,117,6.0,-999.0,73,-99.99,,,-99.99,,2013-01-14 16:23:00,
2013-01-14 11:33:00,75.0,64.0,30.14,ESE,119,7.0,-999.0,69,-99.99,,,-99.99,,2013-01-14 16:33:00,
2013-01-14 11:43:00,75.0,64.0,30.14,ESE,119,7.0,-999.0,69,-99.99,,,-99.99,,2013-01-14 16:43:00,
2013-01-14 11:53:00,75.0,65.0,30.13,ESE,119,8.0,-999.0,70,-99.99,,,-99.99,,2013-01-14 16:53:00,
2013-01-14 12:03:00,75.0,64.0,30.12,SE,132,8.0,-999.0,69,-99.99,,,-99.99,,2013-01-14 17:03:00,
2013-01-14 12:12:00,75.0,64.0,30.12,SE,132,8.0,-999.0,69,-99.99,,,-99.99,,2013-01-14 17:12:00,
2013-01-14 12:23:00,75.0,65.0,30.12,ESE,121,6.0,-999.0,70,-99.99,,,-99.99,,2013-01-14 17:23:00,
2013-01-14 12:33:00,76.0,66.0,30.12,East,91,3.0,-999.0,71,-99.99,,,-99.99,,2013-01-14 17:33:00,
2013-01-14 12:43:00,76.0,66.0,30.12,East,91,3.0,-999.0,71,-99.99,,,-99.99,,2013-01-14 17:43:00,
2013-01-14 12:54:00,76.0,65.0,30.12,SSE,157,4.0,-999.0,69,-99.99,,,-99.99,,2013-01-14 17:54:00,
2013-01-14 13:03:00,76.0,66.0,30.10,SE,128,4.0,-999.0,71,-99.99,,,-99.99,,2013-01-14 18:03:00,
2013-01-14 13:13:00,76.0,66.0,30.10,SE,128,4.0,-999.0,71,-99.99,,,-99.99,,2013-01-14 18:13:00,
2013-01-14 13:23:00,77.0,66.0,30.09,ESE,120,5.0,-999.0,69,-99.99,,,-99.99,,2013-01-14 18:23:00,
2013-01-14 13:33:00,76.0,65.0,30.09,ESE,115,4.0,-999.0,68,-99.99,,,-99.99,,2013-01-14 18:33:00,
2013-01-14 13:43:00,76.0,65.0,30.09,ESE,115,4.0,-999.0,68,-99.99,,,-99.99,,2013-01-14 18:43:00,
2013-01-14 13:53:00,77.0,66.0,30.09,East,101,6.0,-999.0,69,-99.99,,,-99.99,,2013-01-14 18:53:00,
2013-01-14 14:03:00,76.0,65.0,30.09,SE,139,5.0,-999.0,68,-99.99,,,-99.99,,2013-01-14 19:03:00,
2013-01-14 14:13:00,76.0,65.0,30.09,SE,139,5.0,-999.0,68,-99.99,,,-99.99,,2013-01-14 19:13:00,
2013-01-14 14:22:00,77.0,66.0,30.09,SE,132,4.0,-999.0,69,-99.99,,,-99.99,,2013-01-14 19:22:00,
2013-01-14 14:33:00,79.0,65.0,30.09,SW,233,4.0,-999.0,62,-99.99,,,-99.99,,2013-01-14 19:33:00,
2013-01-14 14:43:00,79.0,65.0,30.09,SW,233,4.0,-999.0,62,-99.99,,,-99.99,,2013-01-14 19:43:00,
2013-01-14 14:53:00,81.0,65.0,30.09,SSW,196,5.0,-999.0,58,-99.99,,,-99.99,,2013-01-14 19:53:00,
2013-01-14 15:03:00,81.0,64.0,30.09,West,275,5.0,-999.0,57,-99.99,,,-99.99,,2013-01-14 20:03:00,
2013-01-14 15:13:00,81.0,64.0,30.09,West,275,5.0,-999.0,57,-99.99,,,-99.99,,2013-01-14 20:13:00,
2013-01-14 15:23:00,80.0,64.0,30.10,SW,221,4.0,-999.0,58,-99.99,,,-99.99,,2013-01-14 20:23:00,
2013-01-14 15:33:00,80.0,64.0,30.09,WSW,254,4.0,-999.0,59,-99.99,,,-99.99,,2013-01-14 20:33:00,
2013-01-14 15:43:00,80.0,64.0,30.09,WSW,254,4.0,-999.0,59,-99.99,,,-99.99,,2013-01-14 20:43:00,
2013-01-14 15:53:00,80.0,63.0,30.09,SW,236,4.0,-999.0,57,-99.99,,,-99.99,,2013-01-14 20:53:00,
2013-01-14 16:03:00,80.0,63.0,30.09,West,271,4.0,-999.0,57,-99.99,,,-99.99,,2013-01-14 21:03:00,
2013-01-14 16:13:00,80.0,63.0,30.09,West,271,4.0,-999.0,57,-99.99,,,-99.99,,2013-01-14 21:13:00,
2013-01-14 16:23:00,80.0,63.0,30.10,SW,233,5.0,-999.0,57,-99.99,,,-99.99,,2013-01-14 21:23:00,
2013-01-14 16:33:00,80.0,64.0,30.10,SSW,207,3.0,-999.0,58,-99.99,,,-99.99,,2013-01-14 21:33:00,
2013-01-14 16:43:00,80.0,64.0,30.10,SSW,207,3.0,-999.0,58,-99.99,,,-99.99,,2013-01-14 21:43:00,
2013-01-14 16:53:00,80.0,64.0,30.10,SSW,208,3.0,-999.0,58,-99.99,,,-99.99,,2013-01-14 21:53:00,
2013-01-14 17:03:00,79.0,63.0,30.10,SSW,197,4.0,-999.0,58,-99.99,,,-99.99,,2013-01-14 22:03:00,
2013-01-14 17:12:00,79.0,63.0,30.10,SSW,197,4.0,-999.0,58,-99.99,,,-99.99,,2013-01-14 22:12:00,
2013-01-14 17:23:00,79.0,64.0,30.11,SSW,196,4.0,-999.0,60,-99.99,,,-99.99,,2013-01-14 22:23:00,
2013-01-14 17:33:00,77.0,63.0,30.11,SW,234,3.0,-999.0,62,-99.99,,,-99.99,,2013-01-14 22:33:00,
2013-01-14 17:43:00,77.0,63.0,30.11,SW,234,3.0,-999.0,62,-99.99,,,-99.99,,2013-01-14 22:43:00,
2013-01-14 17:53:00,76.0,63.0,30.11,South,190,3.0,-999.0,65,-99.99,,,-99.99,,2013-01-14 22:53:00,
2013-01-14 18:03:00,76.0,63.0,30.11,South,190,3.0,-999.0,65,-99.99,,,-99.99,,2013-01-14 23:03:00,
2013-01-14 18:12:00,76.0,63.0,30.11,South,190,3.0,-999.0,65,-99.99,,,-99.99,,2013-01-14 23:12:00,
2013-01-14 18:23:00,75.0,63.0,30.12,SW,236,1.0,-999.0,67,-99.99,,,-99.99,,2013-01-14 23:23:00,
2013-01-14 18:33:00,74.0,63.0,30.12,SW,236,1.0,-999.0,69,-99.99,,,-99.99,,2013-01-14 23:33:00,
2013-01-14 18:43:00,74.0,63.0,30.12,SW,236,1.0,-999.0,69,-99.99,,,-99.99,,2013-01-14 23:43:00,
2013-01-14 18:53:00,74.0,64.0,30.13,SW,236,1.0,-999.0,71,-99.99,,,-99.99,,2013-01-14 23:53:00,
2013-01-14 19:03:00,73.0,64.0,30.13,SW,236,0.0,-999.0,73,-99.99,,,-99.99,,2013-01-15 00:03:00,
2013-01-14 19:12:00,73.0,64.0,30.13,SW,236,0.0,-999.0,73,-99.99,,,-99.99,,2013-01-15 00:12:00,
2013-01-14 19:23:00,73.0,65.0,30.14,SW,236,0.0,-999.0,75,-99.99,,,-99.99,,2013-01-15 00:23:00,
2013-01-14 19:33:00,72.0,64.0,30.14,SW,236,0.0,-999.0,76,-99.99,,,-99.99,,2013-01-15 00:33:00,
2013-01-14 19:43:00,72.0,64.0,30.14,SW,236,0.0,-999.0,76,-99.99,,,-99.99,,2013-01-15 00:43:00,
2013-01-14 19:52:00,72.0,64.0,30.14,SW,236,0.0,-999.0,76,-99.99,,,-99.99,,2013-01-15 00:52:00,
2013-01-14 20:02:00,72.0,65.0,30.13,SW,236,0.0,-999.0,79,-99.99,,,-99.99,,2013-01-15 01:02:00,
2013-01-14 20:12:00,72.0,65.0,30.13,SW,236,1.0,-999.0,79,-99.99,,,-99.99,,2013-01-15 01:12:00,
2013-01-14 20:23:00,72.0,65.0,30.13,SW,236,1.0,-999.0,79,-99.99,,,-99.99,,2013-01-15 01:23:00,
2013-01-14 20:32:00,72.0,66.0,30.13,SW,236,0.0,-999.0,82,-99.99,,,-99.99,,2013-01-15 01:32:00,
2013-01-14 20:43:00,72.0,66.0,30.13,SW,236,0.0,-999.0,82,-99.99,,,-99.99,,2013-01-15 01:43:00,
2013-01-14 20:52:00,72.0,67.0,30.13,SW,219,0.0,-999.0,84,-99.99,,,-99.99,,2013-01-15 01:52:00,
2013-01-14 21:03:00,73.0,66.0,30.13,SE,143,0.0,-999.0,80,-99.99,,,-99.99,,2013-01-15 02:03:00,
2013-01-14 21:12:00,73.0,66.0,30.13,SE,143,0.0,-999.0,80,-99.99,,,-99.99,,2013-01-15 02:12:00,
2013-01-14 21:23:00,73.0,66.0,30.13,SE,143,0.0,-999.0,80,-99.99,,,-99.99,,2013-01-15 02:23:00,
2013-01-14 21:33:00,72.0,66.0,30.13,ESE,119,1.0,-999.0,82,-99.99,,,-99.99,,2013-01-15 02:33:00,
2013-01-14 21:42:00,72.0,66.0,30.13,ESE,119,1.0,-999.0,82,-99.99,,,-99.99,,2013-01-15 02:42:00,
2013-01-14 21:52:00,72.0,65.0,30.14,ESE,109,1.0,-999.0,79,-99.99,,,-99.99,,2013-01-15 02:52:00,
2013-01-14 22:03:00,72.0,65.0,30.13,SE,138,3.0,-999.0,79,-99.99,,,-99.99,,2013-01-15 03:03:00,
2013-01-14 22:12:00,72.0,65.0,30.13,SE,138,3.0,-999.0,79,-99.99,,,-99.99,,2013-01-15 03:12:00,
2013-01-14 22:22:00,72.0,64.0,30.13,SE,139,4.0,-999.0,77,-99.99,,,-99.99,,2013-01-15 03:22:00,
2013-01-14 22:33:00,71.0,64.0,30.13,SE,138,4.0,-999.0,79,-99.99,,,-99.99,,2013-01-15 03:33:00,
2013-01-14 22:42:00,71.0,64.0,30.13,SE,138,4.0,-999.0,79,-99.99,,,-99.99,,2013-01-15 03:42:00,
2013-01-14 22:52:00,71.0,64.0,30.13,SE,139,3.0,-999.0,79,-99.99,,,-99.99,,2013-01-15 03:52:00,
2013-01-14 23:03:00,70.0,64.0,30.13,SE,138,4.0,-999.0,80,-99.99,,,-99.99,,2013-01-15 04:03:00,
2013-01-14 23:12:00,70.0,64.0,30.13,SE,138,4.0,-999.0,80,-99.99,,,-99.99,,2013-01-15 04:12:00,
2013-01-14 23:22:00,70.0,64.0,30.13,ESE,119,4.0,-999.0,81,-99.99,,,-99.99,,2013-01-15 04:22:00,
2013-01-14 23:32:00,70.0,64.0,30.12,SE,134,4.0,-999.0,81,-99.99,,,-99.99,,2013-01-15 04:32:00,
2013-01-14 23:42:00,70.0,64.0,30.12,SE,134,4.0,-999.0,81,-99.99,,,-99.99,,2013-01-15 04:42:00,
2013-01-14 23:52:00,70.0,64.0,30.12,SE,134,4.0,-999.0,81,-99.99,,,-99.99,,2013-01-15 04:52:00,